Simultaneous Nadir Overpasses (SNOs) Predictions

Prediction of SNOs between FY3D and TERRA Satellite Orbit:

Table of predicted SNOs for the next 14.0 days since TLE Epoch: 10/19/2024
Index Date (FY3D) Time (FY3D) Lat,Lon (FY3D) SZA (FY3D ) Date (TERRA) Time (TERRA) Lat,Lon (TERRA) SZA (TERRA ) Distance(km) Time Diff (sec)
1 10/20/2024 14:03:08 76.42, -30.54 87.02 10/20/2024 14:03:18 76.42, -30.50 87.02 1.10 10
2 10/20/2024 14:53:52 -76.38, 136.94 93.01 10/20/2024 14:52:41 -76.37, 136.99 93.02 1.77 71
3 10/23/2024 00:25:13 -77.00, -8.32 91.56 10/23/2024 00:26:17 -76.94, -4.58 91.57 94.06 64
4 10/23/2024 01:15:45 76.43, 161.31 87.91 10/23/2024 01:15:47 76.40, 161.29 87.88 3.16 2
5 10/23/2024 02:06:24 -76.16, -30.38 92.33 10/23/2024 02:05:13 -76.20, -31.68 92.32 34.89 71
6 10/25/2024 11:37:40 -76.65,-174.94 91.05 10/25/2024 11:38:52 -76.50,-174.22 91.18 24.82 72
7 10/25/2024 12:28:20 76.42, -6.74 88.75 10/25/2024 12:28:12 76.45, -6.72 88.78 2.85 8
8 10/27/2024 22:50:12 -76.48, 17.61 90.37 10/27/2024 22:51:17 -76.50, 17.64 90.35 2.30 65
9 10/27/2024 23:40:56 76.43,-174.88 89.60 10/27/2024 23:40:37 76.45,-174.86 89.62 1.92 19
10 10/30/2024 10:02:48 -76.52,-150.61 89.52 10/30/2024 10:03:40 -76.51,-150.46 89.52 4.04 52
11 10/30/2024 10:53:32 76.47, 16.89 90.45 10/30/2024 10:53:00 76.46, 17.05 90.44 4.04 32
12 11/01/2024 21:15:22 -76.48, 41.42 88.76 11/01/2024 21:16:02 -76.48, 41.32 88.76 2.66 40



Historial Predications of SNOs between FY3D and TERRA
